[ hide orbit diagram ]
For accurate long-term ephemerides, please instead use our Horizons system.This orbit viewer was implemented using two-body methods, and hence should not be used for determining accurate long-term trajectories (over several years or decades) or planetary encounter circumstances.
Orbital Elements at Epoch 2459200.5 (2020-Dec-17.0) TDB
Reference: JPL 35 (heliocentric ecliptic J2000)
Element | Value | Uncertainty (1-sigma) | Units |
e | .1863533966361748 | 3.4621e-08 | |
a | 2.174241021842826 | 7.0569e-09 | au |
q | 1.769063822316708 | 7.6149e-08 | au |
i | 1.279204031782214 | 4.0651e-06 | deg |
node | 294.7653973525944 | 0.00016976 | deg |
peri | 20.08094301538964 | 0.00017009 | deg |
M | 220.0963213739766 | 1.2149e-05 | deg |
tp | 2459655.578783198350 (2022-Mar-17.07878320) | 4.046e-05 | TDB |
period | 1171.008250535969 3.21 | 5.7011e-06 1.561e-08 | d yr |
n | .307427381348704 | 1.4967e-09 | deg/d |
Q | 2.579418221368944 | 8.372e-09 | au |
|
| | Orbit Determination Parameters
Additional Information
|
[ hide covariance matrix ]
Orbital Elements at Epoch 2456322.5 (2013-Jan-30.0) TDB
Reference: JPL 35 (heliocentric ecliptic J2000)
Element | Value | Uncertainty (1-sigma) | Units |
e | .1855978470325697 | 3.4476e-08 | |
q | 1.77068655777091 | 7.5734e-08 | au |
tp | 2456141.593438257840 (2012-Aug-02.09343826) | 3.6496e-05 | TDB |
node | 294.8921986304577 | 0.00016994 | deg |
peri | 19.75071129502444 | 0.00017027 | deg |
i | 1.278551102738625 | 4.063e-06 | deg |
|
| | Orbit Determination Parameters
Additional Information
|
Orbit Covariance (6×6)
|
|
e |
q |
tp |
node |
peri |
i |
e |
1.188565727337837E-15 |
-2.603618727539192E-15 |
-1.836963754894924E-13 |
4.57368252696457E-16 |
-4.219252634712595E-14 |
7.257014734338067E-18 |
q |
-2.603618727539192E-15 |
5.735630956028132E-15 |
4.060787495600782E-13 |
-7.108543041813183E-16 |
9.371509952248345E-14 |
3.937184398389887E-18 |
tp |
-1.836963754894924E-13 |
4.060787495600782E-13 |
1.331976922147245E-9 |
2.042112942436795E-12 |
4.003046239554214E-10 |
1.759520835542362E-13 |
node |
4.57368252696457E-16 |
-7.108543041813183E-16 |
2.042112942436795E-12 |
2.887856622318245E-8 |
-2.8870454792363E-8 |
-6.938642959445246E-11 |
peri |
-4.219252634712595E-14 |
9.371509952248345E-14 |
4.003046239554214E-10 |
-2.8870454792363E-8 |
2.899233111027057E-8 |
6.941975770521047E-11 |
i |
7.257014734338067E-18 |
3.937184398389887E-18 |
1.759520835542362E-13 |
-6.938642959445246E-11 |
6.941975770521047E-11 |
1.650778747950424E-11 |
|
Physical Parameter Table
Parameter |
Symbol |
Value |
Units |
Sigma |
Reference |
Notes |
absolute magnitude |
H |
14.14 |
|
n/a |
E2020-QM5 |
|
diameter |
diameter |
4.354 |
km |
0.025 |
urn:nasa:pds:neowise_diameters_albedos::2.0[mainbelt] (http://adsabs.harvard.edu/abs/2011ApJ...741...68M) |
|
geometric albedo |
albedo |
0.290 |
|
0.040 |
urn:nasa:pds:neowise_diameters_albedos::2.0[mainbelt] (http://adsabs.harvard.edu/abs/2011ApJ...741...68M) |
|
|
4239 Goodman (1980 OE) Discovered 1980-Jul-17 by Bowell, E. at Flagstaff |
Reference: DISCOVERY.DB | Last Updated: 2003-08-29 |
|
[ show close-approach data ]
Alternate Designations
1980 OE = 1977 SC3 = 1977 TT4 |
|
|